CUBEBUG-1 (CAPITAN BETO)

Last updated on Fri Feb 16 2018 09:49:20 GMT+0000 (Coordinated Universal Time)

1 39153U 13018D 18047.18437009 .00000232 00000-0 37372-4 0 9999 2 39153 97.9790 143.1591 0016435 342.7402 17.3249 14.80339752259687
UTC large
Height (km)
Speed (km/s)
/
Latitude / Longitude
Inclination (degrees)
Orbital Period (minutes)
Azimuth
Elevation
Range (km)
Doppler Factor

Next 0 passes for location: London (51.5072 / 0.1276)

Sorry there are no passes over London.